UKLUUKLL

Guest
Details From UKLU - UZHHOROD INTL
To UKLL - LVIV INTL
Flight Number -
Tags generated
Created
Modified
Stats Distance 97 nm / 180 km
Max Altitude 0 ft / 0 m
Waypoints 3
Social Downloads 1
Likes 0
Share VATSIM

Download

Looking for another format? Having issues loading an existing format? Contact us
Advertisement - Login to hide

Notes

Basic altitude profile: - Ascent Rate: 2500ft/min - Ascent Speed: 250kts - Cruise Altitude: 35000ft - Cruise Speed: 420kts - Descent Rate: 1500ft/min - Descent Speed: 250kts Options: - Use NATs: yes - Use PACOTS: yes - Use low airways: no - Use high airways: yes

Route

UKLU LIV UKLL

ID Type Via Altitude Latitude Longitude Leg Dist Tot Dist Heading (true) Name
O UKLU APT - 0 ft / 0 m 48.63428˚ 22.26336˚ - 0 nm - UZHHOROD INTL
LIV VOR - 0 ft / 0 m 49.81160˚ 23.95097˚ 96 nm 96 nm 42° / 44° LVIV VOR-DME
O UKLL APT - 0 ft / 0 m 49.81264˚ 23.95611˚ 0 nm 97 nm 73° / 73° LVIV INTL

Altitude Profile

Advertisement - Login to hide

UKLU

Details ICAO UKLU (UDJ)
Name UZHHOROD INTL
Region Ukraine
Timezone Europe/Uzhgorod (UTC+3.0)
Stats Elevation 383 ft / 117 m (AMSL)
Location 48.634278° 22.263355°
Runways 1
Magnetic Variation 5.594° E

METAR

UKLU 220900Z 12004MPS 070V240 9999 SCT040 BKN100 21/11 Q1019 R10/090070 TEMPO -TSRA SCT030CB

Decode

TAF

Not found

Departure Runways

ID Width Length Bearing (true) Bearing (mag) Surface Threshold Offset Overrun Length
10 131 ft / 40 m 6,682 ft / 2,037 m 103.38° 97.79° Concrete 0 ft / 0 m 0 ft / 0 m
28 131 ft / 40 m 6,682 ft / 2,037 m 283.40° 277.81° Concrete 1,765 ft / 538 m 0 ft / 0 m

UKLL

Details ICAO UKLL (LWO)
Name LVIV INTL
Region Ukraine
Timezone Europe/Kiev (UTC+3.0)
Stats Elevation 1,071 ft / 326 m (AMSL)
Location 49.812638° 23.956111°
Runways 1
Magnetic Variation 6.152° E

METAR

UKLL 220900Z 15003MPS 070V180 CAVOK 17/12 Q1019 R13/150070 NOSIG

Decode

TAF

TAF UKLL 212309Z 2200/2224 12005MPS 9999 BKN025 TEMPO 2200/2212 VRB02MPS 2100 -SHRA BR BKN007 BKN020CB TEMPO 2212/2219 VRB07G14MPS 3000 -TSRAGR BKN007 BKN020CB

Decode

Destination Runways

ID Width Length Bearing (true) Bearing (mag) Surface Threshold Offset Overrun Length
13 148 ft / 45 m 8,300 ft / 2,530 m 136.09° 129.94° Asphalt 0 ft / 0 m 160 ft / 49 m
31 148 ft / 45 m 8,300 ft / 2,530 m 316.11° 309.96° Asphalt 0 ft / 0 m 145 ft / 44 m

Approach Navaids

Runway Type Ident Frequency Range Bearing (true) Bearing (mag) Slope Elevation
13 Localiser ILO 109.50 MHz 18 nm / 33 km 135.94° 129.79° - 1,071 ft / 326 m (AMSL)
13 Glidescope ILO 109.50 MHz 10 nm / 19 km 136.10° 129.94° 3.00° 1,071 ft / 326 m (AMSL)
31 Localiser ILV 110.30 MHz 18 nm / 33 km 315.64° 309.49° - 1,071 ft / 326 m (AMSL)
31 Glidescope ILV 110.30 MHz 10 nm / 19 km 316.10° 309.94° 3.00° 1,071 ft / 326 m (AMSL)